Time,TemperatureF,DewpointF,PressureIn,WindDirection,WindDirectionDegrees,WindSpeedMPH,WindSpeedGustMPH,Humidity,HourlyPrecipIn,Conditions,Clouds,dailyrainin,SoftwareType,DateUTC
2013-10-09 00:00:00,77.2,70.5,29.94,WNW,283,2.0,2.0,80,0.00,,,0.00,Wunderground v.1.15,2013-10-09 04:00:00,
2013-10-09 00:10:00,76.8,70.5,29.94,West,271,2.0,2.0,81,0.00,,,0.00,Wunderground v.1.15,2013-10-09 04:10:00,
2013-10-09 00:19:00,76.4,70.5,29.94,WNW,290,2.0,3.0,82,0.00,,,0.00,Wunderground v.1.15,2013-10-09 04:19:00,
2013-10-09 00:30:00,76.1,70.6,29.94,WNW,285,2.0,5.0,83,0.00,,,0.00,Wunderground v.1.15,2013-10-09 04:30:00,
2013-10-09 00:40:00,75.9,70.4,29.93,West,270,2.0,2.0,83,0.00,,,0.00,Wunderground v.1.15,2013-10-09 04:40:00,
2013-10-09 00:49:00,75.8,70.6,29.93,WNW,284,2.0,2.0,84,0.00,,,0.00,Wunderground v.1.15,2013-10-09 04:49:00,
2013-10-09 01:00:00,75.4,70.2,29.93,West,273,1.0,1.0,84,0.00,,,0.00,Wunderground v.1.15,2013-10-09 05:00:00,
2013-10-09 01:10:00,75.1,70.3,29.93,West,266,1.0,2.0,85,0.00,,,0.00,Wunderground v.1.15,2013-10-09 05:10:00,
2013-10-09 01:20:00,74.8,70.0,29.93,West,269,1.0,1.0,85,0.00,,,0.00,Wunderground v.1.15,2013-10-09 05:20:00,
2013-10-09 01:29:00,74.5,70.0,29.93,WSW,253,0.0,0.0,86,0.00,,,0.00,Wunderground v.1.15,2013-10-09 05:29:00,
2013-10-09 01:40:00,74.2,69.7,29.93,WSW,252,0.0,0.0,86,0.00,,,0.00,Wunderground v.1.15,2013-10-09 05:40:00,
2013-10-09 01:50:00,73.9,69.8,29.93,West,266,0.0,2.0,87,0.00,,,0.00,Wunderground v.1.15,2013-10-09 05:50:00,
2013-10-09 01:59:00,73.6,69.5,29.93,WSW,246,1.0,1.0,87,0.00,,,0.00,Wunderground v.1.15,2013-10-09 05:59:00,
2013-10-09 02:10:00,73.3,69.5,29.93,West,266,0.0,0.0,88,0.00,,,0.00,Wunderground v.1.15,2013-10-09 06:10:00,
2013-10-09 02:20:00,73.1,69.3,29.93,West,271,1.0,1.0,88,0.00,,,0.00,Wunderground v.1.15,2013-10-09 06:20:00,
2013-10-09 02:30:00,72.9,69.1,29.93,West,260,1.0,1.0,88,0.00,,,0.00,Wunderground v.1.15,2013-10-09 06:30:00,
2013-10-09 02:40:00,72.7,69.3,29.93,West,266,0.0,0.0,89,0.00,,,0.00,Wunderground v.1.15,2013-10-09 06:40:00,
2013-10-09 02:50:00,72.6,69.2,29.93,WNW,284,1.0,1.0,89,0.00,,,0.00,Wunderground v.1.15,2013-10-09 06:50:00,
2013-10-09 03:00:00,72.5,69.1,29.93,WSW,258,1.0,1.0,89,0.00,,,0.00,Wunderground v.1.15,2013-10-09 07:00:00,
2013-10-09 03:09:00,72.3,69.2,29.93,WSW,245,0.0,0.0,90,0.00,,,0.00,Wunderground v.1.15,2013-10-09 07:09:00,
2013-10-09 03:20:00,72.0,68.9,29.93,SW,221,0.0,0.0,90,0.00,,,0.00,Wunderground v.1.15,2013-10-09 07:20:00,
2013-10-09 03:30:00,72.1,69.0,29.92,WSW,248,1.0,1.0,90,0.00,,,0.00,Wunderground v.1.15,2013-10-09 07:30:00,
2013-10-09 03:39:00,72.0,68.9,29.92,SW,232,0.0,0.0,90,0.00,,,0.00,Wunderground v.1.15,2013-10-09 07:39:00,
2013-10-09 03:50:00,71.9,69.1,29.92,WSW,238,0.0,0.0,91,0.00,,,0.00,Wunderground v.1.15,2013-10-09 07:50:00,
2013-10-09 04:00:00,71.8,69.0,29.92,WSW,242,0.0,0.0,91,0.00,,,0.00,Wunderground v.1.15,2013-10-09 08:00:00,
2013-10-09 04:10:00,71.9,69.1,29.92,WSW,243,0.0,0.0,91,0.00,,,0.00,Wunderground v.1.15,2013-10-09 08:10:00,
2013-10-09 04:20:00,71.8,69.0,29.92,WSW,239,0.0,0.0,91,0.00,,,0.00,Wunderground v.1.15,2013-10-09 08:20:00,
2013-10-09 04:30:00,71.8,69.0,29.92,WSW,243,0.0,0.0,91,0.00,,,0.00,Wunderground v.1.15,2013-10-09 08:30:00,
2013-10-09 04:40:00,71.7,68.9,29.92,WSW,250,0.0,0.0,91,0.00,,,0.00,Wunderground v.1.15,2013-10-09 08:40:00,
2013-10-09 04:50:00,71.8,69.0,29.92,West,276,0.0,0.0,91,0.00,,,0.00,Wunderground v.1.15,2013-10-09 08:50:00,
2013-10-09 05:00:00,71.8,69.0,29.92,West,262,0.0,0.0,91,0.00,,,0.00,Wunderground v.1.15,2013-10-09 09:00:00,
2013-10-09 05:10:00,71.7,68.9,29.92,WSW,248,0.0,0.0,91,0.00,,,0.00,Wunderground v.1.15,2013-10-09 09:10:00,
2013-10-09 05:20:00,71.6,68.8,29.92,SSW,194,0.0,0.0,91,0.00,,,0.00,Wunderground v.1.15,2013-10-09 09:20:00,
2013-10-09 05:30:00,71.7,68.9,29.93,SW,224,1.0,1.0,91,0.00,,,0.00,Wunderground v.1.15,2013-10-09 09:30:00,
2013-10-09 05:40:00,72.0,69.2,29.93,WSW,240,1.0,1.0,91,0.00,,,0.00,Wunderground v.1.15,2013-10-09 09:40:00,
2013-10-09 05:50:00,72.1,69.3,29.93,WSW,243,0.0,0.0,91,0.00,,,0.00,Wunderground v.1.15,2013-10-09 09:50:00,
2013-10-09 06:00:00,72.1,69.3,29.93,WSW,249,1.0,1.0,91,0.00,,,0.00,Wunderground v.1.15,2013-10-09 10:00:00,
2013-10-09 06:10:00,72.3,69.2,29.94,West,280,1.0,1.0,90,0.00,,,0.00,Wunderground v.1.15,2013-10-09 10:10:00,
2013-10-09 06:20:00,72.2,69.1,29.93,West,271,1.0,1.0,90,0.00,,,0.00,Wunderground v.1.15,2013-10-09 10:20:00,
2013-10-09 06:29:00,72.2,69.1,29.94,West,264,0.0,0.0,90,0.00,,,0.00,Wunderground v.1.15,2013-10-09 10:29:00,
2013-10-09 07:30:00,72.9,69.8,29.95,West,274,2.0,2.0,90,0.00,,,0.00,Wunderground v.1.15,2013-10-09 11:30:00,
2013-10-09 07:40:00,73.3,70.2,29.94,WSW,257,2.0,2.0,90,0.00,,,0.00,Wunderground v.1.15,2013-10-09 11:40:00,
2013-10-09 07:50:00,73.9,70.8,29.94,West,273,2.0,2.0,90,0.00,,,0.00,Wunderground v.1.15,2013-10-09 11:50:00,
2013-10-09 08:00:00,74.4,71.3,29.95,WNW,290,2.0,2.0,90,0.00,,,0.00,Wunderground v.1.15,2013-10-09 12:00:00,
2013-10-09 08:10:00,75.1,71.6,29.95,WNW,296,2.0,2.0,89,0.00,,,0.00,Wunderground v.1.15,2013-10-09 12:10:00,
2013-10-09 08:20:00,75.4,71.9,29.95,NNW,332,3.0,3.0,89,0.00,,,0.00,Wunderground v.1.15,2013-10-09 12:20:00,
2013-10-09 08:30:00,75.5,72.0,29.95,NW,305,3.0,3.0,89,0.00,,,0.00,Wunderground v.1.15,2013-10-09 12:30:00,
2013-10-09 08:40:00,75.6,72.1,29.96,West,266,3.0,3.0,89,0.00,,,0.00,Wunderground v.1.15,2013-10-09 12:40:00,
2013-10-09 08:50:00,76.0,72.5,29.96,SW,229,3.0,3.0,89,0.00,,,0.00,Wunderground v.1.15,2013-10-09 12:50:00,
2013-10-09 09:00:00,76.4,72.6,29.97,WNW,287,3.0,3.0,88,0.00,,,0.00,Wunderground v.1.15,2013-10-09 13:00:00,
2013-10-09 09:10:00,76.7,72.9,29.97,NW,323,4.0,4.0,88,0.00,,,0.00,Wunderground v.1.15,2013-10-09 13:10:00,
2013-10-09 09:20:00,76.9,72.7,29.98,WNW,291,4.0,5.0,87,0.00,,,0.00,Wunderground v.1.15,2013-10-09 13:20:00,
2013-10-09 09:30:00,76.9,72.7,29.97,West,259,4.0,5.0,87,0.00,,,0.00,Wunderground v.1.15,2013-10-09 13:30:00,
2013-10-09 09:40:00,77.1,72.6,29.97,WNW,298,5.0,5.0,86,0.00,,,0.00,Wunderground v.1.15,2013-10-09 13:40:00,
2013-10-09 09:50:00,77.7,73.2,29.97,West,266,5.0,5.0,86,0.00,,,0.00,Wunderground v.1.15,2013-10-09 13:50:00,
2013-10-09 10:00:00,78.0,73.1,29.98,WNW,301,5.0,6.0,85,0.00,,,0.00,Wunderground v.1.15,2013-10-09 14:00:00,
2013-10-09 10:10:00,78.5,73.3,29.98,West,269,5.0,5.0,84,0.00,,,0.00,Wunderground v.1.15,2013-10-09 14:10:00,
2013-10-09 10:20:00,79.0,73.4,29.98,ENE,63,5.0,5.0,83,0.00,,,0.00,Wunderground v.1.15,2013-10-09 14:20:00,
2013-10-09 10:30:00,78.4,73.2,29.99,NW,319,6.0,6.0,84,0.00,,,0.00,Wunderground v.1.15,2013-10-09 14:30:00,
2013-10-09 10:40:00,77.6,72.7,30.00,NNW,339,6.0,6.0,85,0.00,,,0.00,Wunderground v.1.15,2013-10-09 14:40:00,
2013-10-09 10:50:00,77.5,73.0,29.99,WNW,291,5.0,6.0,86,0.00,,,0.00,Wunderground v.1.15,2013-10-09 14:50:00,
2013-10-09 11:00:00,77.9,73.4,29.99,NNW,342,5.0,5.0,86,0.00,,,0.00,Wunderground v.1.15,2013-10-09 15:00:00,
2013-10-09 11:10:00,77.9,73.4,29.99,NW,319,5.0,5.0,86,0.00,,,0.00,Wunderground v.1.15,2013-10-09 15:10:00,
2013-10-09 11:20:00,78.3,73.1,30.00,NW,319,4.0,4.0,84,0.00,,,0.00,Wunderground v.1.15,2013-10-09 15:20:00,
2013-10-09 11:30:00,78.3,73.4,30.00,WNW,302,5.0,9.0,85,0.00,,,0.00,Wunderground v.1.15,2013-10-09 15:30:00,
2013-10-09 11:40:00,78.5,73.6,30.00,SW,236,4.0,4.0,85,0.00,,,0.00,Wunderground v.1.15,2013-10-09 15:40:00,
2013-10-09 11:50:00,78.6,73.4,29.99,NNE,20,4.0,4.0,84,0.00,,,0.00,Wunderground v.1.15,2013-10-09 15:50:00,
2013-10-09 12:00:00,79.3,73.7,29.99,West,278,4.0,4.0,83,0.00,,,0.00,Wunderground v.1.15,2013-10-09 16:00:00,
2013-10-09 12:10:00,80.0,73.6,29.99,NNW,328,3.0,3.0,81,0.00,,,0.00,Wunderground v.1.15,2013-10-09 16:10:00,
2013-10-09 12:20:00,80.0,74.0,29.98,WSW,246,4.0,6.0,82,0.00,,,0.00,Wunderground v.1.15,2013-10-09 16:20:00,
2013-10-09 12:30:00,80.2,74.2,29.98,NE,34,4.0,4.0,82,0.00,,,0.00,Wunderground v.1.15,2013-10-09 16:30:00,
2013-10-09 12:40:00,80.5,74.1,29.98,North,4,3.0,3.0,81,0.00,,,0.00,Wunderground v.1.15,2013-10-09 16:40:00,
2013-10-09 12:50:00,81.0,74.6,29.98,West,262,4.0,6.0,81,0.00,,,0.00,Wunderground v.1.15,2013-10-09 16:50:00,
2013-10-09 13:00:00,81.6,74.8,29.97,NW,307,4.0,4.0,80,0.00,,,0.00,Wunderground v.1.15,2013-10-09 17:00:00,
2013-10-09 13:10:00,82.0,74.8,29.97,NE,47,5.0,5.0,79,0.00,,,0.00,Wunderground v.1.15,2013-10-09 17:10:00,
2013-10-09 13:20:00,82.7,74.8,29.96,WNW,295,5.0,5.0,77,0.00,,,0.00,Wunderground v.1.15,2013-10-09 17:20:00,
2013-10-09 13:30:00,82.3,74.4,29.96,NNE,30,5.0,9.0,77,0.00,,,0.00,Wunderground v.1.15,2013-10-09 17:30:00,
2013-10-09 13:40:00,82.3,74.4,29.95,WNW,288,4.0,4.0,77,0.00,,,0.00,Wunderground v.1.15,2013-10-09 17:40:00,
2013-10-09 13:50:00,81.7,74.5,29.95,NNW,328,6.0,8.0,79,0.00,,,0.00,Wunderground v.1.15,2013-10-09 17:50:00,
2013-10-09 14:00:00,82.8,74.5,29.95,NNW,333,7.0,7.0,76,0.00,,,0.00,Wunderground v.1.15,2013-10-09 18:00:00,
2013-10-09 14:10:00,83.4,74.6,29.95,NE,43,6.0,8.0,75,0.00,,,0.00,Wunderground v.1.15,2013-10-09 18:10:00,
2013-10-09 14:20:00,83.5,74.7,29.94,North,352,7.0,7.0,75,0.00,,,0.00,Wunderground v.1.15,2013-10-09 18:20:00,
2013-10-09 14:30:00,83.8,75.0,29.94,East,82,7.0,7.0,75,0.00,,,0.00,Wunderground v.1.15,2013-10-09 18:30:00,
2013-10-09 14:40:00,83.8,73.8,29.94,WNW,298,7.0,7.0,72,0.00,,,0.00,Wunderground v.1.15,2013-10-09 18:40:00,
2013-10-09 14:50:00,83.8,74.2,29.94,ENE,60,6.0,7.0,73,0.00,,,0.00,Wunderground v.1.15,2013-10-09 18:50:00,
2013-10-09 15:00:00,83.3,74.5,29.94,ENE,61,6.0,6.0,75,0.00,,,0.00,Wunderground v.1.15,2013-10-09 19:00:00,
2013-10-09 15:10:00,83.1,74.7,29.94,North,358,6.0,6.0,76,0.00,,,0.00,Wunderground v.1.15,2013-10-09 19:10:00,
2013-10-09 15:20:00,83.2,73.2,29.94,NNE,27,7.0,7.0,72,0.00,,,0.00,Wunderground v.1.15,2013-10-09 19:20:00,
2013-10-09 15:30:00,83.6,74.0,29.94,NE,51,7.0,10.0,73,0.00,,,0.00,Wunderground v.1.15,2013-10-09 19:30:00,
2013-10-09 15:40:00,83.6,73.6,29.94,ENE,77,8.0,8.0,72,0.00,,,0.00,Wunderground v.1.15,2013-10-09 19:40:00,
2013-10-09 15:50:00,83.4,73.8,29.93,NE,54,7.0,7.0,73,0.00,,,0.00,Wunderground v.1.15,2013-10-09 19:50:00,
2013-10-09 16:00:00,82.8,73.7,29.93,NE,51,8.0,8.0,74,0.00,,,0.00,Wunderground v.1.15,2013-10-09 20:00:00,
2013-10-09 16:10:00,82.8,74.1,29.93,NE,36,7.0,7.0,75,0.00,,,0.00,Wunderground v.1.15,2013-10-09 20:10:00,
2013-10-09 16:20:00,82.5,73.8,29.93,NE,43,7.0,7.0,75,0.00,,,0.00,Wunderground v.1.15,2013-10-09 20:20:00,
2013-10-09 16:30:00,82.4,73.7,29.94,NNE,30,6.0,8.0,75,0.00,,,0.00,Wunderground v.1.15,2013-10-09 20:30:00,
2013-10-09 16:40:00,82.3,74.0,29.94,NE,34,7.0,7.0,76,0.00,,,0.00,Wunderground v.1.15,2013-10-09 20:40:00,
2013-10-09 16:50:00,81.8,74.3,29.94,NNE,32,10.0,10.0,78,0.00,,,0.00,Wunderground v.1.15,2013-10-09 20:50:00,
2013-10-09 17:00:00,81.7,74.2,29.94,North,4,9.0,9.0,78,0.00,,,0.00,Wunderground v.1.15,2013-10-09 21:00:00,
2013-10-09 17:10:00,81.4,74.3,29.94,NE,53,8.0,8.0,79,0.00,,,0.00,Wunderground v.1.15,2013-10-09 21:10:00,
2013-10-09 17:20:00,81.4,74.3,29.94,North,359,8.0,8.0,79,0.00,,,0.00,Wunderground v.1.15,2013-10-09 21:20:00,
2013-10-09 17:30:00,81.4,73.9,29.94,North,1,7.0,7.0,78,0.00,,,0.00,Wunderground v.1.15,2013-10-09 21:30:00,
2013-10-09 17:40:00,81.5,74.4,29.94,NNW,338,5.0,5.0,79,0.00,,,0.00,Wunderground v.1.15,2013-10-09 21:40:00,
2013-10-09 17:50:00,81.6,74.5,29.94,NNE,30,5.0,5.0,79,0.00,,,0.00,Wunderground v.1.15,2013-10-09 21:50:00,
2013-10-09 18:00:00,81.5,74.4,29.94,North,356,4.0,6.0,79,0.00,,,0.00,Wunderground v.1.15,2013-10-09 22:00:00,
2013-10-09 18:10:00,81.7,74.2,29.94,NNE,21,5.0,5.0,78,0.00,,,0.00,Wunderground v.1.15,2013-10-09 22:10:00,
2013-10-09 18:20:00,81.5,74.0,29.94,ENE,61,5.0,9.0,78,0.00,,,0.00,Wunderground v.1.15,2013-10-09 22:20:00,
2013-10-09 18:30:00,81.3,73.8,29.94,North,11,6.0,6.0,78,0.00,,,0.00,Wunderground v.1.15,2013-10-09 22:30:00,
2013-10-09 18:40:00,81.2,73.7,29.94,NNE,22,7.0,10.0,78,0.00,,,0.00,Wunderground v.1.15,2013-10-09 22:40:00,
2013-10-09 18:50:00,81.0,73.5,29.94,NNE,23,7.0,7.0,78,0.00,,,0.00,Wunderground v.1.15,2013-10-09 22:50:00,
2013-10-09 19:00:00,80.8,73.3,29.94,North,5,7.0,7.0,78,0.00,,,0.00,Wunderground v.1.15,2013-10-09 23:00:00,
2013-10-09 19:10:00,80.7,73.6,29.94,NNE,16,6.0,7.0,79,0.00,,,0.00,Wunderground v.1.15,2013-10-09 23:10:00,
2013-10-09 19:20:00,80.4,73.7,29.94,North,4,8.0,13.0,80,0.00,,,0.00,Wunderground v.1.15,2013-10-09 23:20:00,
2013-10-09 19:30:00,80.3,73.6,29.95,NNE,12,7.0,10.0,80,0.00,,,0.00,Wunderground v.1.15,2013-10-09 23:30:00,
2013-10-09 19:40:00,80.1,73.4,29.95,North,352,8.0,8.0,80,0.00,,,0.00,Wunderground v.1.15,2013-10-09 23:40:00,
2013-10-09 19:50:00,79.9,73.2,29.95,NE,41,7.0,7.0,80,0.00,,,0.00,Wunderground v.1.15,2013-10-09 23:50:00,
2013-10-09 20:00:00,79.9,73.2,29.95,North,6,6.0,11.0,80,0.00,,,0.00,Wunderground v.1.15,2013-10-10 00:00:00,
2013-10-09 20:10:00,79.7,73.3,29.95,North,8,7.0,7.0,81,0.00,,,0.00,Wunderground v.1.15,2013-10-10 00:10:00,
2013-10-09 20:20:00,79.4,73.1,29.96,NNW,328,6.0,6.0,81,0.00,,,0.00,Wunderground v.1.15,2013-10-10 00:20:00,
2013-10-09 20:30:00,79.3,73.0,29.96,NNE,12,8.0,8.0,81,0.00,,,0.00,Wunderground v.1.15,2013-10-10 00:30:00,
2013-10-09 20:40:00,79.1,72.8,29.96,North,6,6.0,8.0,81,0.00,,,0.00,Wunderground v.1.15,2013-10-10 00:40:00,
2013-10-09 20:50:00,78.9,72.9,29.97,North,352,5.0,7.0,82,0.00,,,0.00,Wunderground v.1.15,2013-10-10 00:50:00,
2013-10-09 21:00:00,78.8,72.8,29.97,North,358,4.0,4.0,82,0.00,,,0.00,Wunderground v.1.15,2013-10-10 01:00:00,
2013-10-09 21:10:00,78.6,72.6,29.97,North,4,6.0,6.0,82,0.00,,,0.00,Wunderground v.1.15,2013-10-10 01:10:00,
2013-10-09 21:20:00,78.5,72.5,29.97,North,354,5.0,7.0,82,0.00,,,0.00,Wunderground v.1.15,2013-10-10 01:20:00,
2013-10-09 21:30:00,78.4,72.4,29.97,NW,323,5.0,5.0,82,0.00,,,0.00,Wunderground v.1.15,2013-10-10 01:30:00,
2013-10-09 21:40:00,78.2,72.6,29.98,ENE,59,4.0,4.0,83,0.00,,,0.00,Wunderground v.1.15,2013-10-10 01:40:00,
2013-10-09 21:50:00,78.2,72.6,29.98,NW,308,5.0,6.0,83,0.00,,,0.00,Wunderground v.1.15,2013-10-10 01:50:00,
2013-10-09 22:00:00,78.1,72.5,29.99,NNW,347,5.0,6.0,83,0.00,,,0.00,Wunderground v.1.15,2013-10-10 02:00:00,
2013-10-09 22:10:00,78.0,72.4,29.99,NW,323,4.0,5.0,83,0.00,,,0.00,Wunderground v.1.15,2013-10-10 02:10:00,
2013-10-09 22:20:00,77.9,72.3,29.99,NW,326,4.0,4.0,83,0.00,,,0.00,Wunderground v.1.15,2013-10-10 02:20:00,
2013-10-09 22:30:00,78.0,72.4,29.99,NW,306,3.0,4.0,83,0.00,,,0.00,Wunderground v.1.15,2013-10-10 02:30:00,
2013-10-09 22:40:00,77.9,72.3,30.00,NNW,338,3.0,3.0,83,0.00,,,0.00,Wunderground v.1.15,2013-10-10 02:40:00,
2013-10-09 22:50:00,77.9,72.3,30.00,NNW,332,3.0,3.0,83,0.00,,,0.00,Wunderground v.1.15,2013-10-10 02:50:00,
2013-10-09 23:00:00,77.7,72.1,30.00,NNW,338,3.0,3.0,83,0.00,,,0.00,Wunderground v.1.15,2013-10-10 03:00:00,
2013-10-09 23:10:00,77.6,72.0,30.00,NNW,336,3.0,3.0,83,0.00,,,0.00,Wunderground v.1.15,2013-10-10 03:10:00,
2013-10-09 23:20:00,77.5,71.9,30.00,NNE,20,3.0,5.0,83,0.00,,,0.00,Wunderground v.1.15,2013-10-10 03:20:00,
2013-10-09 23:30:00,77.3,72.1,29.99,NNW,346,3.0,4.0,84,0.00,,,0.00,Wunderground v.1.15,2013-10-10 03:30:00,
2013-10-09 23:40:00,77.2,72.0,29.99,NW,321,4.0,5.0,84,0.00,,,0.00,Wunderground v.1.15,2013-10-10 03:40:00,
2013-10-09 23:50:00,77.1,71.9,29.99,NNW,342,3.0,3.0,84,0.00,,,0.00,Wunderground v.1.15,2013-10-10 03:50:00,